Weather History for KBIX - February, 2012

Change the Weather History Date:

Thursday, February 16, 2012

  Actual Average Record
Temperature  
Mean Temperature 66 °F -  
Max Temperature 71 °F 64 °F 77 °F (2000)
Min Temperature 61 °F 49 °F 26 °F (2007)
Cooling Degree Days 1    
Growing Degree Days 16 (Base 50)    
Moisture  
Dew Point 64 °F    
Average Humidity 96    
Maximum Humidity 100    
Minimum Humidity 71    
Precipitation  
Precipitation 0.15 in - - ()
Sea Level Pressure  
Sea Level Pressure 30.07 in    
Wind  
Wind Speed 8 mph (SSW)    
Max Wind Speed 13 mph    
Max Gust Speed -    
Visibility 4 miles    
Events Fog , Rain , Thunderstorm    
Averages and records for this station are not official NWS values.
T = Trace of Precipitation, MM = Missing Value Source: NWS Daily Summary

Daily Weather History Graph

Daily Weather History Graph

Search for Another Location

Airport or City:

Trip Planner

Search our weather history database for the weather conditions in past years. The results will help you decide how hot, cold, wet, or windy it might be!

Date:

Astronomy

Feb. 16, 2012 Rise Set
Actual Time 6:35 AM CST 5:44 PM CST
Civil Twilight 6:11 AM CST 6:08 PM CST
Nautical Twilight 5:42 AM CST 6:37 PM CST
Astronomical Twilight 5:14 AM CST 7:05 PM CST
Moon 2:17 AM CST (2/16) 12:49 PM CST (2/16)
Length of Visible Light 11h 57m
Length of Day
11h 08m
Waning Crescent, 28% of the Moon is Illuminated
Feb 16
Waning Crescent
Feb 21
New
Feb 29
First Quarter
Mar 8
Full
Mar 14
Last Quarter

Hourly Weather History & Observations

Time (CST) Temp. Dew Point Humidity Pressure Visibility Wind Dir Wind Speed Gust Speed Precip Events Conditions
12:05 AM 66.2 °F 64.4 °F 94% 30.06 in 9.0 mi South 12.7 mph - N/A   Overcast
12:06 AM 66.2 °F 64.4 °F 94% 30.06 in 9.0 mi South 12.7 mph - N/A Rain Light Rain
12:16 AM 66.2 °F 64.4 °F 94% 30.06 in 7.0 mi South 9.2 mph - N/A Rain Light Rain
12:35 AM 66.2 °F 64.4 °F 94% 30.06 in 7.0 mi South 9.2 mph - N/A   Overcast
12:40 AM 64.4 °F 64.4 °F 100% 30.06 in 6.0 mi South 9.2 mph - N/A   Overcast
12:44 AM 64.4 °F 64.4 °F 100% 30.06 in 5.0 mi South 8.1 mph - N/A Rain Light Rain
12:48 AM 64.4 °F 64.4 °F 100% 30.06 in 4.0 mi South 9.2 mph - N/A Rain Light Rain
12:52 AM 64.4 °F 64.4 °F 100% 30.06 in 3.0 mi South 9.2 mph - N/A Rain Light Rain
12:53 AM 64.4 °F 64.4 °F 100% 30.05 in 3.0 mi South 8.1 mph - N/A Rain Light Rain
12:55 AM 64.8 °F 64.4 °F 99% 30.05 in 3.0 mi South 9.2 mph - 0.03 in Rain Light Rain
12:57 AM 64.4 °F 64.4 °F 100% 30.05 in 3.0 mi South 8.1 mph - N/A Rain Light Rain
1:07 AM 64.4 °F 64.4 °F 100% 30.05 in 3.0 mi South 8.1 mph - N/A   Overcast
1:08 AM 64.4 °F 64.4 °F 100% 30.05 in 2.5 mi South 8.1 mph - N/A   Overcast
1:10 AM 64.4 °F 64.4 °F 100% 30.05 in 2.0 mi South 6.9 mph - N/A   Overcast
1:11 AM 64.4 °F 64.4 °F 100% 30.05 in 2.0 mi South 6.9 mph - N/A   Overcast
1:12 AM 64.4 °F 64.4 °F 100% 30.05 in 1.8 mi South 6.9 mph - N/A   Overcast
1:14 AM 64.4 °F 64.4 °F 100% 30.04 in 1.5 mi South 8.1 mph - N/A   Overcast
1:16 AM 64.4 °F 64.4 °F 100% 30.04 in 1.2 mi South 8.1 mph - N/A   Overcast
1:31 AM 64.4 °F 64.4 °F 100% 30.04 in 1.0 mi South 5.8 mph - N/A   Mist
1:36 AM 64.4 °F 64.4 °F 100% 30.04 in 1.0 mi South 8.1 mph - N/A   Mist
1:37 AM 64.4 °F 64.4 °F 100% 30.04 in 0.8 mi South 8.1 mph - N/A   Mist
1:42 AM 64.4 °F 64.4 °F 100% 30.04 in 0.8 mi South 6.9 mph - N/A   Mist
1:44 AM 64.4 °F 64.4 °F 100% 30.04 in 0.8 mi South 5.8 mph - N/A   Mist
2:04 AM 64.4 °F 64.4 °F 100% 30.04 in 0.5 mi SSW 6.9 mph - N/A Fog Fog
2:12 AM 64.4 °F 64.4 °F 100% 30.05 in 0.5 mi SW 6.9 mph - N/A Fog , Rain Light Rain
2:20 AM 64.4 °F 62.6 °F 94% 30.04 in 0.8 mi SSW 8.1 mph - N/A Rain Light Rain
2:22 AM 64.4 °F 62.6 °F 94% 30.04 in 0.8 mi SSW 8.1 mph - N/A Rain Rain
2:24 AM 64.4 °F 62.6 °F 94% 30.04 in 0.8 mi SSW 9.2 mph - N/A Rain Rain
2:26 AM 64.4 °F 62.6 °F 94% 30.04 in 1.0 mi SSW 11.5 mph - N/A Rain Heavy Rain
2:28 AM 62.6 °F 62.6 °F 100% 30.04 in 1.2 mi SSW 11.5 mph - N/A Rain Rain
2:29 AM 62.6 °F 62.6 °F 100% 30.04 in 1.5 mi SSW 10.4 mph - N/A Rain Rain
2:31 AM 62.6 °F 62.6 °F 100% 30.04 in 1.8 mi SSW 11.5 mph - N/A Rain Rain
2:32 AM 62.6 °F 62.6 °F 100% 30.04 in 2.0 mi SSW 11.5 mph - N/A Rain Rain
2:33 AM 62.6 °F 62.6 °F 100% 30.04 in 2.5 mi SSW 10.4 mph - N/A Rain Rain
2:34 AM 62.6 °F 62.6 °F 100% 30.04 in 3.0 mi SSW 10.4 mph - N/A Rain Light Rain
2:40 AM 62.6 °F 62.6 °F 100% 30.04 in 6.0 mi SSW 11.5 mph - N/A Rain Light Rain
2:41 AM 62.6 °F 62.6 °F 100% 30.04 in 7.0 mi SSW 11.5 mph - N/A Rain Light Rain
2:55 AM 63.3 °F 63.0 °F 99% 30.04 in 7.0 mi SSW 11.5 mph - 0.10 in Rain , Thunderstorm Light Rain
2:59 AM 62.6 °F 62.6 °F 100% 30.03 in 8.0 mi SSW 12.7 mph - N/A Rain Light Rain
3:00 AM 62.6 °F 62.6 °F 100% 30.04 in 9.0 mi SSW 12.7 mph - N/A   Overcast
3:21 AM 62.6 °F 62.6 °F 100% 30.04 in 8.0 mi SW 9.2 mph - N/A Rain Light Rain
3:42 AM 64.4 °F 64.4 °F 100% 30.04 in 5.0 mi SSW 10.4 mph - N/A   Overcast
3:48 AM 64.4 °F 62.6 °F 94% 30.04 in 4.0 mi SSW 10.4 mph - N/A   Overcast
3:52 AM 64.4 °F 62.6 °F 94% 30.04 in 3.0 mi SSW 9.2 mph - N/A   Overcast
3:55 AM 63.5 °F 63.1 °F 99% 30.04 in 3.0 mi SSW 9.2 mph - 0.01 in   Overcast
4:09 AM 62.6 °F 62.6 °F 100% 30.04 in 2.5 mi SSW 10.4 mph - N/A   Overcast
4:13 AM 62.6 °F 62.6 °F 100% 30.04 in 2.0 mi SSW 10.4 mph - N/A   Overcast
4:14 AM 62.6 °F 62.6 °F 100% 30.04 in 2.0 mi SSW 10.4 mph - N/A   Overcast
4:23 AM 62.6 °F 62.6 °F 100% 30.05 in 2.5 mi Variable 3.5 mph - N/A   Overcast
4:24 AM 62.6 °F 62.6 °F 100% 30.04 in 2.5 mi Variable 4.6 mph - N/A Rain Light Rain
4:25 AM 62.6 °F 62.6 °F 100% 30.04 in 2.5 mi WSW 5.8 mph - N/A Rain Light Rain
4:26 AM 62.6 °F 62.6 °F 100% 30.04 in 2.5 mi WSW 5.8 mph - N/A Rain Light Rain
4:27 AM 62.6 °F 62.6 °F 100% 30.04 in 3.0 mi WSW 5.8 mph - N/A Rain Light Rain
4:51 AM 64.4 °F 64.4 °F 100% 30.04 in 5.0 mi SW 6.9 mph - N/A Rain Light Rain
4:55 AM 64.4 °F 64.2 °F 99% 30.05 in 5.0 mi SW 6.9 mph - 0.01 in Rain Light Rain
4:57 AM 64.4 °F 64.4 °F 100% 30.05 in 6.0 mi SW 6.9 mph - N/A   Overcast
4:58 AM 64.4 °F 64.4 °F 100% 30.05 in 7.0 mi SW 6.9 mph - N/A   Overcast
5:02 AM 64.4 °F 64.4 °F 100% 30.05 in 8.0 mi SW 6.9 mph - N/A   Overcast
5:09 AM 64.4 °F 64.4 °F 100% 30.05 in 10.0 mi SW 5.8 mph - N/A   Overcast
5:14 AM 64.4 °F 64.4 °F 100% 30.06 in 10.0 mi WSW 4.6 mph - N/A   Overcast
5:21 AM 64.4 °F 64.4 °F 100% 30.06 in 10.0 mi WSW 3.5 mph - N/A   Overcast
5:26 AM 64.4 °F 64.4 °F 100% 30.06 in 10.0 mi SW 4.6 mph - N/A   Overcast
5:42 AM 64.4 °F 64.4 °F 100% 30.06 in 7.0 mi SW 4.6 mph - N/A   Overcast
5:48 AM 64.4 °F 64.4 °F 100% 30.06 in 3.0 mi SW 5.8 mph - N/A   Overcast
5:49 AM 64.4 °F 64.4 °F 100% 30.06 in 2.5 mi SW 4.6 mph - N/A   Overcast
5:50 AM 64.4 °F 64.4 °F 100% 30.06 in 2.5 mi SW 4.6 mph - N/A   Overcast
5:51 AM 64.4 °F 64.4 °F 100% 30.06 in 2.0 mi SW 4.6 mph - N/A   Overcast
5:52 AM 64.4 °F 64.4 °F 100% 30.06 in 1.8 mi SW 5.8 mph - N/A   Overcast
5:53 AM 64.4 °F 64.4 °F 100% 30.06 in 1.8 mi SW 4.6 mph - N/A   Overcast
5:54 AM 64.4 °F 64.4 °F 100% 30.06 in 1.5 mi SW 4.6 mph - N/A   Overcast
5:55 AM 63.9 °F 63.7 °F 99% 30.06 in 1.5 mi SW 4.6 mph - 0.00 in   Overcast
5:57 AM 64.4 °F 64.4 °F 100% 30.06 in 1.2 mi SW 4.6 mph - N/A   Overcast
6:00 AM 64.4 °F 64.4 °F 100% 30.06 in 1.0 mi SW 3.5 mph - N/A   Mist
6:04 AM 64.4 °F 62.6 °F 94% 30.06 in 1.0 mi SW 4.6 mph - N/A   Mist
6:06 AM 64.4 °F 62.6 °F 94% 30.06 in 0.8 mi SW 4.6 mph - N/A   Mist
6:12 AM 64.4 °F 62.6 °F 94% 30.06 in 0.8 mi SSW 4.6 mph - N/A   Mist
6:28 AM 64.4 °F 62.6 °F 94% 30.07 in 0.5 mi SW 5.8 mph - N/A Fog Fog
6:35 AM 64.4 °F 62.6 °F 94% 30.07 in 0.5 mi WSW 3.5 mph - N/A Fog Fog
6:38 AM 64.4 °F 62.6 °F 94% 30.07 in 0.2 mi SW 3.5 mph - N/A Fog Fog
6:55 AM 63.9 °F 63.5 °F 99% 30.08 in 0.2 mi Calm Calm - N/A Fog Fog
7:22 AM 64.4 °F 64.4 °F 100% 30.09 in 0.2 mi Calm Calm - N/A Fog Fog
7:26 AM 64.4 °F 64.4 °F 100% 30.09 in 0.5 mi Calm Calm - N/A Fog Fog
7:37 AM 64.4 °F 64.4 °F 100% 30.09 in 0.2 mi West 3.5 mph - N/A Fog Fog
7:39 AM 64.4 °F 64.4 °F 100% 30.10 in 0.2 mi WSW 3.5 mph - N/A Fog Fog
7:43 AM 64.4 °F 64.4 °F 100% 30.09 in 0.2 mi West 4.6 mph - N/A Fog Fog
7:46 AM 66.2 °F 64.4 °F 94% 30.09 in 0.5 mi Variable 3.5 mph - N/A Fog Fog
7:55 AM 65.8 °F 65.7 °F 99% 30.09 in 0.5 mi Calm Calm - N/A Fog Fog
8:02 AM 66.2 °F 66.2 °F 100% 30.09 in 0.5 mi Calm Calm - N/A Fog Fog
8:04 AM 66.2 °F 66.2 °F 100% 30.09 in 0.8 mi Calm Calm - N/A   Mist
8:08 AM 66.2 °F 66.2 °F 100% 30.10 in 0.8 mi Calm Calm - N/A   Mist
8:15 AM 66.2 °F 66.2 °F 100% 30.10 in 0.5 mi Calm Calm - N/A Fog Fog
8:42 AM 66.2 °F 66.2 °F 100% 30.10 in 0.5 mi Calm Calm - N/A Fog Fog
8:43 AM 66.2 °F 66.2 °F 100% 30.10 in 0.8 mi Calm Calm - N/A   Mist
8:44 AM 66.2 °F 66.2 °F 100% 30.10 in 0.8 mi Calm Calm - N/A   Mist
8:45 AM 66.2 °F 66.2 °F 100% 30.10 in 0.8 mi Calm Calm - N/A   Mist
8:55 AM 67.1 °F 66.9 °F 99% 30.11 in 0.8 mi SSW 5.8 mph - N/A   Overcast
9:10 AM 66.2 °F 64.4 °F 94% 30.11 in 0.8 mi SSW 5.8 mph - N/A   Mist
9:18 AM 66.2 °F 64.4 °F 94% 30.11 in 0.8 mi SSW 5.8 mph - N/A   Mist
9:27 AM 66.2 °F 66.2 °F 100% 30.11 in 3.0 mi Variable 3.5 mph - N/A   Overcast
9:39 AM 66.2 °F 66.2 °F 100% 30.12 in 10.0 mi Variable 5.8 mph - N/A   Overcast
9:48 AM 66.2 °F 66.2 °F 100% 30.12 in 10.0 mi Calm Calm - N/A   Overcast
9:55 AM 66.7 °F 65.7 °F 96% 30.12 in 10.0 mi NNE 4.6 mph - N/A   Overcast
10:10 AM 66.2 °F 64.4 °F 94% 30.12 in 10.0 mi Variable 3.5 mph - N/A   Overcast
10:16 AM 66.2 °F 64.4 °F 94% 30.13 in 10.0 mi Calm Calm - N/A   Overcast
10:33 AM 68.0 °F 64.4 °F 88% 30.12 in 10.0 mi Variable 3.5 mph - N/A   Overcast
10:36 AM 68.0 °F 64.4 °F 88% 30.12 in 10.0 mi Variable 5.8 mph - N/A   Overcast
10:42 AM 68.0 °F 64.4 °F 88% 30.12 in 10.0 mi NNE 4.6 mph - N/A   Overcast
10:55 AM 67.3 °F 64.8 °F 92% 30.12 in 10.0 mi Variable 3.5 mph - N/A   Overcast
11:55 AM 68.4 °F 64.0 °F 86% 30.10 in 10.0 mi Variable 4.6 mph - N/A   Overcast
12:22 PM 66.2 °F 62.6 °F 88% 30.11 in 10.0 mi Variable 5.8 mph - N/A   Overcast
12:29 PM 66.2 °F 62.6 °F 88% 30.09 in 10.0 mi Variable 3.5 mph - N/A   Overcast
12:55 PM 69.1 °F 63.9 °F 83% 30.08 in 10.0 mi NE 11.5 mph - N/A   Overcast
1:37 PM 69.8 °F 62.6 °F 78% 30.05 in 10.0 mi NNE 6.9 mph - N/A   Mostly Cloudy
1:41 PM 69.8 °F 62.6 °F 78% 30.06 in 10.0 mi NNE 6.9 mph - N/A   Scattered Clouds
1:55 PM 71.6 °F 62.6 °F 73% 30.05 in 10.0 mi NE 8.1 mph - N/A   Mostly Cloudy
2:27 PM 71.6 °F 62.6 °F 73% 30.06 in 10.0 mi North 8.1 mph - N/A   Mostly Cloudy
2:55 PM 69.8 °F 62.6 °F 78% 30.06 in 10.0 mi North 6.9 mph - N/A   Overcast
3:55 PM 68.0 °F 60.8 °F 78% 30.06 in 10.0 mi North 10.4 mph - N/A   Overcast
4:55 PM 68.0 °F 60.8 °F 78% 30.07 in 10.0 mi NNE 5.8 mph - N/A   Mostly Cloudy
5:55 PM 66.2 °F 60.8 °F 83% 30.10 in 10.0 mi NNW 6.9 mph - N/A   Mostly Cloudy
6:15 PM 66.2 °F 59.0 °F 78% 30.11 in 10.0 mi North 4.6 mph - N/A   Mostly Cloudy
6:55 PM 64.4 °F 60.8 °F 88% 30.10 in 10.0 mi North 5.8 mph - N/A   Mostly Cloudy
7:55 PM 64.4 °F 59.0 °F 83% 30.10 in 10.0 mi North 3.5 mph - N/A   Mostly Cloudy
8:55 PM 62.6 °F 59.0 °F 88% 30.09 in 10.0 mi NE 5.8 mph - N/A   Mostly Cloudy
9:55 PM 62.6 °F 59.0 °F 88% 30.09 in 10.0 mi NE 5.8 mph - N/A   Mostly Cloudy
10:55 PM 61.9 °F 56.8 °F 84% 30.09 in 10.0 mi NNE 5.8 mph - N/A   Clear
11:55 PM 61.3 °F 52.0 °F 71% 30.09 in 10.0 mi ENE 6.9 mph - N/A   Clear